[[{"header":{"parameterUnit":"m.s-1","parameterCategory":1,"la1":30.2991,"la2":30.254,"lo1":-89.0895,"lo2":-89.0444,"dy":0.0017,"dx":0.0017,"nx":28,"ny":28,"refTime":"2024-03-30T03:00:00:Z","depth":0,"parameterNumber":2,"parameterNumberName":"U-component_of_WINDS"},"data":[0,0,0,0,0,0,0,0,0,0,0,0,0,0,0,0,0,0,0,0,0,0,0,0,0,0,0,0,0,0,0,0,0,0,0,0,0,0,0,0,0,0,0,0,0,0,0,0,0,0,0,0,0,0,0,0,0,0,0.1832,0.1832,0,0.1833,0.1833,0.1833,0.1829,0.1829,0.1829,0.1829,0.1828,0.1828,0.1828,0,0,0,0,0,0,0,0,0,0,0,0,0,0.1826,0.1826,0.1832,0.1832,0.1832,0.1833,0.1833,0.1833,0.1829,0.1829,0.1829,0.1829,0.1828,0.1828,0.1828,0,0,0,0,0,0,0,0,0,0,0,0,0,0.1828,0.1826,0.1832,0.183,0.183,0.1833,0.1833,0.1833,0.1829,0.1829,0.1829,0.1828,0.1828,0.1828,0.1828,0.1832,0,0,0.1829,0.1829,0,0,0,0,0,0,0,0,0.1828,0.1828,0.1831,0.1831,0.183,0.1831,0.183,0.1833,0.1829,0.1829,0.1829,0.1828,0.1829,0.1829,0.183,0.1832,0.1832,0.1829,0.1829,0.1829,0.1829,0,0,0,0,0,0,0,0.1828,0.1828,0.1832,0.1831,0.183,0.1829,0.1829,0.1831,0.183,0.1829,0.1829,0.1829,0.1829,0.1829,0.1829,0.1832,0.1829,0.1829,0.1829,0.1829,0.1837,0.1837,0,0,0,0,0,0,0.1828,0.1828,0.1832,0.1832,0.1829,0.1829,0.1829,0.1831,0.183,0.183,0.1829,0.1829,0.1829,0.1829,0.1829,0.1833,0.1829,0.1829,0.1829,0.1837,0.1837,0.1837,0,0,0,0,0,0,0.1828,0.1829,0.1832,0.183,0.1831,0.183,0.1831,0.1831,0.1831,0.183,0.183,0.183,0.1829,0.1829,0.1831,0.1833,0.1829,0.1829,0.1837,0.1837,0.1837,0.1841,0,0,0,0,0,0,0.1828,0.1829,0.183,0.183,0.1831,0.1835,0.1831,0.1831,0.1832,0.1831,0.1831,0.183,0.1829,0.1831,0.1832,0.1833,0.1829,0.1837,0.1837,0.1837,0.1841,0.1842,0.1842,0,0,0,0,0,0.1828,0.1832,0.1831,0.1831,0.1833,0.1835,0.1835,0.1834,0.1832,0.1833,0.1832,0.183,0.1833,0.1831,0.1832,0.1834,0.1836,0.1837,0.1837,0.1841,0.1841,0.1842,0,0,0,0,0,0,0.1832,0.1832,0.183,0.1835,0.1835,0.1834,0.1836,0.1835,0.1835,0.1835,0.1833,0.1833,0.1835,0.1834,0.1833,0.1837,0.1834,0.1835,0.1837,0.1838,0.1838,0.1838,0.1829,0,0,0,0,0,0.1834,0.1836,0.1835,0.1839,0.1839,0.1837,0.1838,0.1837,0.1837,0.1837,0.1836,0.1836,0.1837,0.1837,0.1838,0.1841,0.184,0.1842,0.1843,0.1843,0.1843,0.1844,0.1845,0.1838,0.1838,0.1838,0,0,0.1837,0.1837,0.1838,0.1839,0.184,0.1841,0.1838,0.184,0.184,0.1837,0.1839,0.1838,0.1838,0.184,0.1841,0.184,0.1845,0.1844,0.1844,0.1844,0.1844,0.1845,0.1846,0.1838,0.1838,0.1838,0,0,0.1843,0.1844,0.1846,0.1846,0.1846,0.1845,0.1846,0.1845,0.1845,0.1846,0.1844,0.1845,0.1846,0.1845,0.1845,0.185,0.1848,0.185,0.1853,0.1854,0.1854,0.1855,0.1856,0.1856,0.1851,0.1851,0.1851,0,0.1847,0.1849,0.1848,0.1849,0.185,0.1847,0.1849,0.1849,0.1849,0.1849,0.1848,0.1849,0.1848,0.185,0.1851,0.1851,0.1851,0.185,0.1855,0.1855,0.1855,0.1856,0.1857,0.1851,0.1851,0.1851,0.1851,0,0.1853,0.1855,0.1857,0.1857,0.1857,0.186,0.1858,0.1858,0.1857,0.1856,0.1857,0.1856,0.1856,0.1856,0.1855,0.1858,0.1857,0.1855,0.1852,0.1856,0.1857,0.1857,0.1851,0.1851,0.1851,0.1851,0,0,0.1863,0.1861,0.1862,0.1862,0.1861,0.1862,0.1863,0.1863,0.1863,0.1863,0.1864,0.1865,0.1863,0.1863,0.1861,0.1862,0.1865,0.186,0.186,0.186,0.1866,0.1868,0.1868,0.1863,0.1863,0.1863,0.1866,0,0.1868,0.1871,0.1869,0.1872,0.1873,0.187,0.1871,0.187,0.1869,0.1869,0.1867,0.1868,0.1866,0.1865,0.1866,0.1864,0.1866,0.1864,0.1863,0.1863,0.1863,0.1869,0.187,0.1873,0.1867,0.1867,0.1867,0,0.1875,0.1875,0.1878,0.1876,0.1876,0.1878,0.1877,0.1877,0.1876,0.1875,0.1874,0.1872,0.1873,0.187,0.1871,0.1869,0.1869,0.1868,0.1868,0.1868,0.1865,0.1868,0.1874,0.1874,0.1867,0.1867,0.1867,0,0.1881,0.1882,0.1883,0.1883,0.1881,0.1882,0.1881,0.188,0.1879,0.1879,0.1878,0.1878,0.1877,0.1876,0.1874,0.1872,0.1874,0.1872,0.1873,0.1873,0.1873,0.1873,0.1879,0.1873,0.1873,0.1873,0.1873,0,0.1887,0.1888,0.1885,0.1886,0.1888,0.1885,0.1887,0.1885,0.1884,0.1884,0.1882,0.1882,0.1879,0.1878,0.1876,0.1876,0.1876,0.1875,0.1874,0.1875,0.1875,0.1874,0.1874,0.1874,0.1874,0.1873,0.1873,0,0.1893,0.1892,0.1893,0.1891,0.189,0.1891,0.1889,0.189,0.1888,0.1888,0.1888,0.1885,0.1885,0.1882,0.1881,0.1879,0.188,0.1879,0.188,0.188,0.1881,0.1881,0.1886,0.1886,0.1881,0.1881,0.1881,0,0.1897,0.1898,0.1896,0.1896,0.1895,0.1896,0.1895,0.1893,0.1892,0.189,0.1891,0.189,0.1889,0.1888,0.1885,0.1884,0.1883,0.1885,0.1883,0.1883,0.1882,0.1882,0.1882,0.1885,0.1885,0.1885,0.1885,0,0.1904,0.1903,0.1902,0.1902,0.1901,0.19,0.1899,0.1899,0.1896,0.1896,0.1895,0.1894,0.1893,0.1892,0.189,0.1889,0.1886,0.1886,0.1886,0.1887,0.1887,0.1886,0.1881,0.1886,0.1886,0.1886,0.1886,0.1886,0.1909,0.1909,0.1908,0.1907,0.1906,0.1905,0.1905,0.1903,0.1903,0.1901,0.19,0.1899,0.1897,0.1894,0.1893,0.1892,0.1891,0.1891,0.1891,0.1891,0.1891,0.1887,0.1891,0.1891,0.1891,0.1891,0.1891,0,0.1914,0.1913,0.1913,0.1911,0.1911,0.1909,0.1907,0.1907,0.1906,0.1905,0.1904,0.1902,0.1901,0.1898,0.1897,0.1896,0.1895,0.1896,0.1896,0.1895,0.1892,0.1892,0.1897,0.1897,0.1897,0.1897,0.1897,0.1897,0.1917,0.1918,0.1916,0.1916,0.1915,0.1914,0.1913,0.1912,0.1911,0.1909,0.1908,0.1906,0.1904,0.1902,0.1901,0.19,0.1899,0.19,0.1899,0.1896,0.1896,0.1895,0.1895,0.19,0.19,0.1902,0.1902,0.1902]},{"header":{"parameterUnit":"m.s-1","parameterCategory":1,"la1":30.2991,"la2":30.254,"lo1":-89.0895,"lo2":-89.0444,"dy":0.0017,"dx":0.0017,"nx":28,"ny":28,"refTime":"2024-03-30T03:00:00:Z","depth":0,"parameterNumber":3,"parameterNumberName":"V-component_of_WINDS"},"data":[0,0,0,0,0,0,0,0,0,0,0,0,0,0,0,0,0,0,0,0,0,0,0,0,0,0,0,0,0,0,0,0,0,0,0,0,0,0,0,0,0,0,0,0,0,0,0,0,0,0,0,0,0,0,0,0,0,0,3.6279,3.628,0,3.634,3.6341,3.6341,3.6316,3.6314,3.6313,3.6312,3.637,3.6373,3.6376,0,0,0,0,0,0,0,0,0,0,0,0,0,3.6138,3.614,3.6279,3.628,3.6281,3.634,3.6341,3.6342,3.6316,3.6314,3.6313,3.6311,3.6369,3.6372,3.6376,0,0,0,0,0,0,0,0,0,0,0,0,0,3.6199,3.6141,3.6279,3.6275,3.6276,3.634,3.6341,3.6342,3.6316,3.6314,3.6312,3.631,3.6368,3.6372,3.6376,3.6446,0,0,3.639,3.6391,0,0,0,0,0,0,0,0,3.6195,3.6204,3.6275,3.6276,3.6276,3.6318,3.6312,3.6377,3.6317,3.6301,3.6312,3.6309,3.6354,3.6359,3.6375,3.6449,3.6452,3.639,3.6393,3.6394,3.6396,0,0,0,0,0,0,0,3.6191,3.6201,3.6303,3.6276,3.6277,3.6269,3.6276,3.6324,3.6339,3.6302,3.63,3.6308,3.6354,3.6371,3.6377,3.6453,3.639,3.6394,3.6396,3.6398,3.6585,3.6587,0,0,0,0,0,0,3.6187,3.6198,3.6301,3.6305,3.623,3.6274,3.6281,3.6307,3.6338,3.6341,3.631,3.6307,3.6365,3.6372,3.6379,3.6461,3.6394,3.6398,3.6401,3.6583,3.6585,3.6588,0,0,0,0,0,0,3.6184,3.6197,3.6299,3.6251,3.6263,3.6278,3.6308,3.6309,3.6327,3.6344,3.6346,3.6325,3.6364,3.6372,3.643,3.6463,3.64,3.6404,3.658,3.6583,3.6587,3.6628,0,0,0,0,0,0,3.618,3.6196,3.6224,3.6252,3.6266,3.635,3.631,3.6312,3.6335,3.6331,3.6359,3.6362,3.6363,3.6423,3.6434,3.6468,3.6408,3.6577,3.6581,3.6586,3.6624,3.6633,3.6641,0,0,0,0,0,3.6175,3.6233,3.6225,3.6238,3.6301,3.6352,3.636,3.6361,3.6337,3.6365,3.6376,3.6361,3.6458,3.6429,3.6441,3.6477,3.6575,3.658,3.6585,3.662,3.6631,3.664,0,0,0,0,0,0,3.6207,3.6236,3.6228,3.6297,3.6322,3.6348,3.6382,3.6373,3.6405,3.64,3.6399,3.6405,3.6464,3.6476,3.6444,3.6546,3.6513,3.652,3.6535,3.6546,3.6554,3.6549,3.6411,0,0,0,0,0,3.6222,3.6262,3.6285,3.6343,3.6356,3.6367,3.639,3.6388,3.6414,3.6424,3.644,3.6464,3.65,3.6524,3.6558,3.6626,3.6631,3.6657,3.6665,3.6672,3.6678,3.6713,3.6724,3.6605,3.6605,3.6605,0,0,3.6253,3.6274,3.6299,3.635,3.637,3.641,3.6377,3.6421,3.645,3.6431,3.6485,3.6498,3.6525,3.6587,3.6616,3.66,3.6712,3.6678,3.6684,3.6686,3.672,3.6731,3.6741,3.6609,3.6608,3.6608,0,0,3.633,3.6351,3.6401,3.6421,3.6452,3.6459,3.6471,3.6498,3.6505,3.6561,3.6547,3.6581,3.6643,3.6663,3.6681,3.6765,3.6752,3.6776,3.6818,3.6853,3.6862,3.687,3.6899,3.6909,3.6783,3.6783,3.6783,0,3.6364,3.6425,3.6427,3.6472,3.6494,3.648,3.6529,3.6549,3.6588,3.6603,3.6585,3.6662,3.668,3.6746,3.6767,3.6782,3.6794,3.6772,3.6861,3.6869,3.6877,3.6904,3.6915,3.6786,3.6785,3.6785,3.6785,0,3.6465,3.6508,3.6544,3.6584,3.661,3.6657,3.6664,3.669,3.6687,3.6695,3.675,3.6771,3.6809,3.6824,3.6821,3.689,3.6879,3.6861,3.6827,3.6891,3.6916,3.6927,3.6789,3.6788,3.6788,3.6787,0,0,3.6563,3.6603,3.6616,3.6633,3.6666,3.6698,3.6744,3.6782,3.6803,3.6831,3.6868,3.6921,3.6905,3.6925,3.6924,3.6954,3.7017,3.6933,3.6933,3.6946,3.7092,3.7104,3.7117,3.701,3.7012,3.7013,3.709,0,3.6641,3.6722,3.6725,3.6799,3.6837,3.6824,3.6863,3.6887,3.6896,3.6928,3.6938,3.6975,3.6951,3.6963,3.6993,3.7004,3.7046,3.6998,3.7042,3.7044,3.7034,3.713,3.7143,3.7214,3.71,3.7101,3.7103,0,3.6742,3.6774,3.6852,3.6878,3.6894,3.693,3.6964,3.6996,3.7022,3.7026,3.7049,3.7043,3.7088,3.7055,3.7116,3.7083,3.7101,3.7109,3.7111,3.7114,3.7076,3.7134,3.7237,3.7247,3.7118,3.7117,3.7116,0,3.6804,3.6866,3.692,3.6936,3.6968,3.6993,3.7007,3.7031,3.7053,3.7083,3.7097,3.7131,3.7149,3.7175,3.7178,3.7154,3.7239,3.7206,3.7242,3.7242,3.7259,3.7258,3.7366,3.7274,3.7274,3.7274,3.7273,0,3.6889,3.6937,3.6948,3.6981,3.7034,3.7036,3.7087,3.7099,3.7121,3.7155,3.7146,3.7178,3.718,3.7213,3.7215,3.7264,3.7273,3.7276,3.7276,3.7276,3.7276,3.7287,3.7281,3.7276,3.7276,3.7275,3.7275,0,3.6966,3.6976,3.7033,3.706,3.7067,3.7105,3.7126,3.7157,3.7165,3.7208,3.7219,3.7231,3.7269,3.7275,3.7319,3.732,3.7379,3.7374,3.737,3.7369,3.7404,3.74,3.7522,3.7537,3.7437,3.7438,3.7439,0,3.7019,3.7056,3.7086,3.7109,3.7125,3.7161,3.7184,3.7187,3.7211,3.7243,3.727,3.7307,3.7336,3.7397,3.7409,3.7442,3.7437,3.7477,3.7442,3.7441,3.7436,3.7433,3.7436,3.7484,3.7485,3.7486,3.7486,0,3.7112,3.7115,3.7149,3.7185,3.7212,3.724,3.7266,3.7285,3.7291,3.7318,3.7357,3.738,3.7425,3.7461,3.7494,3.7507,3.7497,3.7498,3.7507,3.7507,3.7503,3.7504,3.7387,3.7494,3.7494,3.7493,3.7493,3.7492,3.7178,3.7209,3.7235,3.7273,3.7293,3.7317,3.7347,3.736,3.7393,3.743,3.743,3.7472,3.7496,3.7539,3.7555,3.7587,3.7573,3.7588,3.7592,3.7595,3.7597,3.7499,3.7593,3.7593,3.7592,3.7592,3.7592,0,3.7269,3.7285,3.732,3.7357,3.7386,3.7376,3.7404,3.7429,3.7466,3.749,3.7519,3.7563,3.7598,3.7613,3.7647,3.767,3.7666,3.7679,3.7676,3.7679,3.7608,3.7596,3.7681,3.7681,3.7681,3.7681,3.7681,3.7681,3.732,3.7372,3.7378,3.7439,3.7454,3.7496,3.7513,3.7535,3.7554,3.7604,3.7633,3.7643,3.7663,3.7698,3.7729,3.7732,3.7744,3.7759,3.776,3.7693,3.7684,3.7675,3.7663,3.7762,3.7762,3.7828,3.7828,3.7829]}]]